[[{"header":{"parameterUnit":"m.s-1","parameterCategory":1,"la1":30.2991,"la2":30.254,"lo1":-89.0895,"lo2":-89.0444,"dy":0.0017,"dx":0.0017,"nx":28,"ny":28,"refTime":"2024-05-31T21:00:00:Z","depth":0,"parameterNumber":2,"parameterNumberName":"U-component_of_WINDS"},"data":[0,0,0,0,0,0,0,0,0,0,0,0,0,0,0,0,0,0,0,0,0,0,0,0,0,0,0,0,0,0,0,0,0,0,0,0,0,0,0,0,0,0,0,0,0,0,0,0,0,0,0,0,0,0,0,0,0,0,-4.63,-4.63,0,-4.6333,-4.6333,-4.6333,-4.629,-4.6288,-4.6287,-4.6285,-4.6317,-4.6319,-4.6321,0,0,0,0,0,0,0,0,0,0,0,0,0,-4.6197,-4.6199,-4.6299,-4.63,-4.63,-4.6333,-4.6333,-4.6333,-4.629,-4.6288,-4.6286,-4.6285,-4.6316,-4.6319,-4.6321,0,0,0,0,0,0,0,0,0,0,0,0,0,-4.6237,-4.62,-4.6299,-4.6283,-4.6282,-4.6332,-4.6333,-4.6334,-4.6291,-4.6288,-4.6286,-4.6284,-4.6315,-4.6318,-4.6322,-4.639,0,0,-4.6332,-4.6334,0,0,0,0,0,0,0,0,-4.6235,-4.6241,-4.6285,-4.6284,-4.6283,-4.6305,-4.6308,-4.6352,-4.6291,-4.6287,-4.6285,-4.6283,-4.6314,-4.6318,-4.6329,-4.6391,-4.6393,-4.6333,-4.6335,-4.6336,-4.6337,0,0,0,0,0,0,0,-4.6232,-4.6239,-4.6312,-4.6285,-4.6284,-4.6273,-4.6276,-4.6316,-4.6313,-4.6287,-4.6284,-4.6289,-4.6313,-4.6326,-4.6329,-4.6393,-4.6332,-4.6335,-4.6338,-4.6339,-4.6512,-4.6515,0,0,0,0,0,0,-4.6231,-4.6237,-4.6311,-4.6313,-4.6253,-4.6277,-4.628,-4.63,-4.6313,-4.6313,-4.6291,-4.6287,-4.6321,-4.6325,-4.633,-4.641,-4.6336,-4.6339,-4.6341,-4.651,-4.6513,-4.6516,0,0,0,0,0,0,-4.6229,-4.6239,-4.631,-4.6274,-4.6283,-4.6281,-4.6304,-4.6302,-4.6314,-4.6316,-4.6315,-4.6304,-4.6319,-4.6326,-4.6375,-4.641,-4.6341,-4.6344,-4.6507,-4.6511,-4.6514,-4.657,0,0,0,0,0,0,-4.6227,-4.6238,-4.6264,-4.6275,-4.6285,-4.6355,-4.6306,-4.6304,-4.6321,-4.6316,-4.6328,-4.6328,-4.6318,-4.6371,-4.6379,-4.6414,-4.6347,-4.6504,-4.6509,-4.6513,-4.6565,-4.6575,-4.6584,0,0,0,0,0,-4.6223,-4.6278,-4.6266,-4.6275,-4.6318,-4.6357,-4.6363,-4.6351,-4.6324,-4.6349,-4.6351,-4.6327,-4.6406,-4.6376,-4.6385,-4.6421,-4.6501,-4.6507,-4.6513,-4.6561,-4.6573,-4.6584,0,0,0,0,0,0,-4.627,-4.6279,-4.6265,-4.6326,-4.6341,-4.635,-4.6382,-4.6365,-4.6388,-4.6382,-4.6366,-4.6369,-4.6422,-4.6427,-4.6394,-4.6488,-4.6449,-4.6457,-4.6482,-4.6494,-4.6504,-4.65,-4.6349,0,0,0,0,0,-4.6287,-4.6319,-4.6326,-4.6378,-4.6387,-4.6384,-4.64,-4.6391,-4.6405,-4.6411,-4.6416,-4.6431,-4.6459,-4.6477,-4.6503,-4.6567,-4.6568,-4.6596,-4.6606,-4.6614,-4.662,-4.6653,-4.6665,-4.6535,-4.6535,-4.6534,0,0,-4.6323,-4.6332,-4.6353,-4.6388,-4.6399,-4.6431,-4.6389,-4.6426,-4.6449,-4.6417,-4.6463,-4.6468,-4.6483,-4.654,-4.6566,-4.6546,-4.6657,-4.6621,-4.6627,-4.6629,-4.666,-4.6672,-4.6683,-4.6539,-4.6538,-4.6537,0,0,-4.6405,-4.6416,-4.646,-4.6472,-4.649,-4.6487,-4.6498,-4.651,-4.6512,-4.656,-4.6535,-4.6564,-4.6613,-4.6624,-4.6637,-4.6725,-4.6704,-4.6734,-4.6783,-4.6815,-4.6826,-4.6835,-4.6864,-4.6875,-4.6741,-4.6741,-4.6741,0,-4.6446,-4.6496,-4.6485,-4.6524,-4.6539,-4.6513,-4.6557,-4.6569,-4.6594,-4.6605,-4.6584,-4.6644,-4.6653,-4.6712,-4.6734,-4.6745,-4.6756,-4.6731,-4.6825,-4.6834,-4.6842,-4.687,-4.6882,-4.6744,-4.6744,-4.6744,-4.6743,0,-4.6545,-4.658,-4.6614,-4.6639,-4.6659,-4.6701,-4.6696,-4.6717,-4.6707,-4.6706,-4.6755,-4.6765,-4.6792,-4.6806,-4.6796,-4.6864,-4.6851,-4.6828,-4.6788,-4.6858,-4.6884,-4.6895,-4.6749,-4.6748,-4.6747,-4.6746,0,0,-4.6654,-4.6675,-4.6687,-4.6698,-4.6717,-4.6743,-4.6783,-4.6811,-4.6829,-4.6848,-4.688,-4.6923,-4.6902,-4.6916,-4.6907,-4.6936,-4.7004,-4.6909,-4.6909,-4.6925,-4.7078,-4.7093,-4.7106,-4.6992,-4.6994,-4.6995,-4.7076,0,-4.6734,-4.6805,-4.6797,-4.6863,-4.6895,-4.6871,-4.6906,-4.6921,-4.6923,-4.6949,-4.6951,-4.6981,-4.6952,-4.696,-4.6988,-4.699,-4.7034,-4.6984,-4.702,-4.7021,-4.7014,-4.712,-4.7136,-4.7211,-4.7086,-4.7088,-4.7089,0,-4.6837,-4.686,-4.693,-4.6943,-4.6956,-4.6988,-4.7012,-4.7039,-4.7055,-4.7054,-4.7071,-4.7057,-4.7097,-4.7059,-4.7113,-4.708,-4.7094,-4.7098,-4.71,-4.7101,-4.7057,-4.7121,-4.7235,-4.7246,-4.7106,-4.7104,-4.7103,0,-4.6907,-4.6956,-4.7003,-4.7014,-4.7032,-4.7054,-4.7062,-4.7077,-4.7094,-4.7116,-4.7127,-4.7153,-4.7167,-4.7187,-4.7181,-4.7154,-4.7236,-4.7198,-4.7235,-4.7235,-4.7251,-4.7249,-4.7367,-4.7265,-4.7265,-4.7265,-4.7264,0,-4.6995,-4.7038,-4.7035,-4.7064,-4.7112,-4.7103,-4.715,-4.7156,-4.7169,-4.7198,-4.718,-4.7208,-4.7199,-4.7227,-4.7222,-4.7267,-4.7274,-4.7273,-4.7271,-4.7274,-4.7273,-4.7281,-4.7274,-4.7268,-4.7267,-4.7266,-4.7266,0,-4.708,-4.708,-4.713,-4.7144,-4.7148,-4.7182,-4.7193,-4.722,-4.7222,-4.7259,-4.7267,-4.7269,-4.73,-4.7297,-4.7332,-4.7329,-4.7384,-4.7376,-4.7378,-4.7375,-4.7412,-4.7408,-4.7536,-4.7552,-4.7442,-4.7444,-4.7444,0,-4.7135,-4.7168,-4.7185,-4.7204,-4.7214,-4.7245,-4.7263,-4.7256,-4.7275,-4.7297,-4.7322,-4.7352,-4.7375,-4.7426,-4.743,-4.7456,-4.7448,-4.7491,-4.7452,-4.7453,-4.7446,-4.7443,-4.7446,-4.7498,-4.7499,-4.75,-4.7501,0,-4.7233,-4.7232,-4.7258,-4.7285,-4.7308,-4.7328,-4.7347,-4.7364,-4.7359,-4.7381,-4.7414,-4.7432,-4.7468,-4.7498,-4.7523,-4.7531,-4.7515,-4.7514,-4.7524,-4.7525,-4.7524,-4.7523,-4.7397,-4.751,-4.7509,-4.7509,-4.7508,-4.7508,-4.7303,-4.7331,-4.7347,-4.7378,-4.7392,-4.741,-4.7436,-4.7442,-4.7469,-4.7498,-4.7493,-4.7529,-4.7545,-4.7577,-4.7588,-4.7616,-4.76,-4.7614,-4.7617,-4.7621,-4.7624,-4.7522,-4.7621,-4.762,-4.762,-4.762,-4.762,0,-4.7398,-4.7408,-4.7436,-4.7464,-4.7488,-4.7473,-4.7493,-4.7514,-4.7546,-4.7563,-4.7586,-4.7623,-4.7652,-4.7659,-4.7687,-4.7708,-4.7701,-4.7715,-4.7712,-4.7714,-4.7637,-4.7625,-4.772,-4.772,-4.772,-4.772,-4.772,-4.772,-4.745,-4.7496,-4.7497,-4.7549,-4.7559,-4.7594,-4.7607,-4.7624,-4.7637,-4.7679,-4.7704,-4.7709,-4.7721,-4.775,-4.7776,-4.7777,-4.7787,-4.7803,-4.7801,-4.7729,-4.7719,-4.7709,-4.7698,-4.7806,-4.7806,-4.7875,-4.7876,-4.7876]},{"header":{"parameterUnit":"m.s-1","parameterCategory":1,"la1":30.2991,"la2":30.254,"lo1":-89.0895,"lo2":-89.0444,"dy":0.0017,"dx":0.0017,"nx":28,"ny":28,"refTime":"2024-05-31T21:00:00:Z","depth":0,"parameterNumber":3,"parameterNumberName":"V-component_of_WINDS"},"data":[0,0,0,0,0,0,0,0,0,0,0,0,0,0,0,0,0,0,0,0,0,0,0,0,0,0,0,0,0,0,0,0,0,0,0,0,0,0,0,0,0,0,0,0,0,0,0,0,0,0,0,0,0,0,0,0,0,0,4.785,4.785,0,4.7869,4.7869,4.7869,4.7822,4.782,4.7819,4.7818,4.7834,4.7836,4.7838,0,0,0,0,0,0,0,0,0,0,0,0,0,4.7772,4.7774,4.785,4.785,4.7851,4.7869,4.7869,4.7869,4.7822,4.782,4.7819,4.7817,4.7833,4.7836,4.7838,0,0,0,0,0,0,0,0,0,0,0,0,0,4.78,4.7774,4.785,4.7829,4.7828,4.7869,4.7869,4.7869,4.7823,4.782,4.7818,4.7816,4.7833,4.7835,4.7838,4.7899,0,0,4.7846,4.7848,0,0,0,0,0,0,0,0,4.7798,4.7803,4.7832,4.7831,4.7829,4.7841,4.7847,4.7879,4.7823,4.7824,4.7817,4.7815,4.7838,4.784,4.7848,4.79,4.7901,4.7847,4.7848,4.7849,4.785,0,0,0,0,0,0,0,4.7796,4.7802,4.7857,4.7833,4.7831,4.7819,4.782,4.7853,4.7843,4.7824,4.7821,4.7824,4.7837,4.7846,4.7848,4.7901,4.7847,4.7849,4.7851,4.7852,4.8004,4.8007,0,0,0,0,0,0,4.7797,4.78,4.7857,4.7858,4.7808,4.7822,4.7823,4.7839,4.7843,4.7841,4.7826,4.7821,4.7842,4.7845,4.7849,4.792,4.7849,4.7852,4.7854,4.8002,4.8005,4.8007,0,0,0,0,0,0,4.7796,4.7803,4.7856,4.7828,4.7834,4.7826,4.7844,4.7841,4.785,4.7844,4.7842,4.7837,4.7841,4.7845,4.7887,4.792,4.7853,4.7856,4.7999,4.8003,4.8006,4.8065,0,0,0,0,0,0,4.7794,4.7803,4.7826,4.7829,4.7836,4.7895,4.7846,4.7843,4.7855,4.785,4.7854,4.7853,4.7839,4.7884,4.789,4.7923,4.7858,4.7996,4.8001,4.8005,4.806,4.807,4.8079,0,0,0,0,0,4.7791,4.7841,4.7827,4.7835,4.7865,4.7897,4.7901,4.7885,4.7858,4.7881,4.7878,4.7852,4.7916,4.7888,4.7895,4.7929,4.7994,4.7999,4.8005,4.8055,4.8068,4.8078,0,0,0,0,0,0,4.784,4.7841,4.7826,4.7878,4.7888,4.7889,4.7917,4.7899,4.7915,4.791,4.7889,4.789,4.7936,4.7937,4.7906,4.7989,4.795,4.7957,4.7987,4.7998,4.8008,4.8006,4.786,0,0,0,0,0,4.7858,4.7884,4.7883,4.793,4.7935,4.7926,4.7939,4.7927,4.7935,4.7939,4.7938,4.7947,4.7969,4.7984,4.8004,4.806,4.806,4.8087,4.8097,4.8105,4.811,4.814,4.8152,4.8025,4.8025,4.8025,0,0,4.7893,4.7897,4.7914,4.794,4.7946,4.7973,4.793,4.796,4.798,4.7943,4.7983,4.7984,4.7992,4.8042,4.8064,4.8044,4.8146,4.8112,4.8118,4.8119,4.8147,4.8159,4.817,4.8029,4.8028,4.8028,0,0,4.7971,4.7977,4.8016,4.8024,4.8034,4.8028,4.8038,4.8042,4.8041,4.8081,4.8054,4.8078,4.8116,4.8124,4.8132,4.8216,4.8193,4.8223,4.8271,4.8301,4.8311,4.8319,4.8349,4.8359,4.8229,4.8229,4.8229,0,4.8013,4.8054,4.8039,4.8072,4.8083,4.8053,4.8093,4.8101,4.8117,4.8125,4.8104,4.8152,4.8155,4.8207,4.8227,4.8236,4.8245,4.8221,4.8311,4.8319,4.8327,4.8355,4.8366,4.8233,4.8232,4.8232,4.8232,0,4.8105,4.8134,4.8165,4.8182,4.8198,4.8234,4.8224,4.8241,4.8228,4.8224,4.8266,4.827,4.829,4.8301,4.8288,4.8351,4.8339,4.8314,4.8274,4.8343,4.8369,4.8379,4.8238,4.8236,4.8235,4.8235,0,0,4.8212,4.8223,4.8234,4.8242,4.8252,4.8274,4.8309,4.8331,4.8346,4.8358,4.8387,4.8421,4.8399,4.8409,4.8397,4.8423,4.8488,4.8395,4.8395,4.8412,4.8557,4.8575,4.8587,4.8474,4.8476,4.8478,4.8556,0,4.8289,4.835,4.8338,4.8397,4.8424,4.8397,4.8427,4.8437,4.8434,4.8456,4.8453,4.8478,4.8447,4.8453,4.8478,4.8475,4.8517,4.847,4.8499,4.8501,4.8497,4.8601,4.8619,4.8692,4.8566,4.8568,4.8569,0,4.8386,4.8404,4.8466,4.8473,4.8484,4.8511,4.853,4.8552,4.8562,4.8559,4.8571,4.8555,4.8589,4.8551,4.8597,4.8565,4.8577,4.8578,4.8581,4.8581,4.8538,4.8603,4.8716,4.8726,4.8585,4.8584,4.8583,0,4.8457,4.8496,4.8539,4.8547,4.8556,4.8577,4.8581,4.859,4.8603,4.862,4.8629,4.8649,4.866,4.8675,4.8664,4.8638,4.8713,4.8674,4.871,4.8711,4.8726,4.8725,4.8841,4.8736,4.8736,4.8736,4.8736,0,4.8543,4.8581,4.8571,4.8597,4.864,4.8627,4.8669,4.8671,4.8679,4.8704,4.8682,4.8706,4.8691,4.8714,4.8706,4.8746,4.8751,4.8748,4.8745,4.875,4.875,4.8756,4.875,4.8739,4.8738,4.8737,4.8737,0,4.8628,4.8623,4.8668,4.8674,4.8676,4.8708,4.8713,4.8737,4.8734,4.8767,4.8773,4.8768,4.8794,4.8786,4.8813,4.8808,4.8858,4.8849,4.8855,4.8852,4.8889,4.8885,4.9012,4.9027,4.8914,4.8915,4.8916,0,4.8683,4.8712,4.8722,4.8739,4.8745,4.8772,4.8786,4.8774,4.879,4.8805,4.8828,4.8852,4.8871,4.8914,4.8912,4.8933,4.8923,4.8967,4.8926,4.893,4.8923,4.8921,4.8924,4.8974,4.8975,4.8976,4.8977,0,4.878,4.8776,4.8798,4.8821,4.8839,4.8856,4.887,4.8884,4.8873,4.8892,4.892,4.8934,4.8963,4.8988,4.9007,4.9011,4.8992,4.899,4.9,4.9003,4.9005,4.9004,4.8875,4.8987,4.8986,4.8985,4.8985,4.8984,4.885,4.8876,4.8887,4.8913,4.8924,4.8938,4.8961,4.8962,4.8985,4.9008,4.9,4.9031,4.9041,4.9066,4.9073,4.9096,4.9079,4.9093,4.9097,4.91,4.9104,4.9003,4.91,4.91,4.9099,4.9099,4.9099,0,4.8946,4.8952,4.8977,4.8998,4.9019,4.9002,4.9017,4.9035,4.9063,4.9075,4.9094,4.9126,4.915,4.9151,4.9173,4.9192,4.9184,4.9198,4.9196,4.9197,4.9118,4.9108,4.9204,4.9204,4.9204,4.9204,4.9204,4.9204,4.8997,4.9039,4.9038,4.9085,4.9091,4.9122,4.9132,4.9145,4.9155,4.9191,4.9211,4.9213,4.922,4.9243,4.9264,4.9264,4.9273,4.929,4.9286,4.9213,4.9202,4.9192,4.9182,4.9292,4.9293,4.9363,4.9363,4.9364]}]]